This is the latest recevied weather packets stored in our database for station/object DO7ZT-13. If no packets are shown the sender has not sent any weather packets the latest 10 day(s).
| Time | Temp. | Humidity | Pressure | Rain* | Wind** | Luminosity | Snow |
|---|---|---|---|---|---|---|---|
| 1777125008 | 16.11° C | 35% | 1013.4 hPa | 0 mm | 2.68 m/s, 268° | - | - |
| 1777124720 | 16.11° C | 37% | 1013.4 hPa | 0 mm | 1.79 m/s, 250° | - | - |
| 1777124407 | 16.11° C | 38% | 1013.4 hPa | 0 mm | 1.79 m/s, 258° | - | - |
| 1777124120 | 16.11° C | 36% | 1013.4 hPa | 0 mm | 1.34 m/s, 276° | - | - |
| 1777123807 | 16.11° C | 38% | 1013.5 hPa | 0 mm | 0.45 m/s, 268° | - | - |
| 1777123520 | 16.11° C | 38% | 1013.5 hPa | 0 mm | 1.34 m/s, 312° | - | - |
| 1777123208 | 16.11° C | 39% | 1013.5 hPa | 0 mm | 1.34 m/s, 330° | - | - |
| 1777122920 | 16.11° C | 39% | 1013.6 hPa | 0 mm | 1.34 m/s, 276° | - | - |
| 1777122608 | 16.11° C | 40% | 1013.6 hPa | 0 mm | 1.79 m/s, 218° | - | - |
| 1777122320 | 16.11° C | 37% | 1013.6 hPa | 0 mm | 3.13 m/s, 319° | - | - |
| 1777122008 | 16.11° C | 37% | 1013.7 hPa | 0 mm | 0.89 m/s, 243° | - | - |
| 1777121720 | 15° C | 41% | 1013.7 hPa | 0 mm | 2.24 m/s, 261° | - | - |
| 1777121408 | 16.11° C | 39% | 1013.7 hPa | 0 mm | 2.24 m/s, 257° | - | - |
| 1777121120 | 16.11° C | 41% | 1013.8 hPa | 0 mm | 2.68 m/s, 244° | - | - |
| 1777120807 | 16.11° C | 40% | 1013.8 hPa | 0 mm | 0.89 m/s, 258° | - | - |
| 1777120520 | 15° C | 40% | 1013.8 hPa | 0 mm | 0.89 m/s, 262° | - | - |
| 1777120213 | 15° C | 41% | 1013.9 hPa | 0 mm | 1.34 m/s, 306° | - | - |
| 1777119920 | 16.11° C | 43% | 1013.9 hPa | 0 mm | 2.68 m/s, 270° | - | - |
| 1777119607 | 15° C | 44% | 1013.9 hPa | 0 mm | 0.45 m/s, 270° | - | - |
| 1777119320 | 15° C | 45% | 1014.1 hPa | 0 mm | 0.89 m/s, 264° | - | - |
| 1777119007 | 15° C | 42% | 1014.1 hPa | 0 mm | 1.34 m/s, 258° | - | - |
| 1777118720 | 15° C | 44% | 1014.1 hPa | 0 mm | 0.89 m/s, 264° | - | - |
| 1777118408 | 15° C | 46% | 1014.2 hPa | 0 mm | 0.89 m/s, 245° | - | - |
| 1777118134 | 13.89° C | 47% | 1014.2 hPa | 0 mm | 1.79 m/s, 270° | - | - |
| 1777117820 | 13.89° C | 45% | 1014.2 hPa | 0 mm | 1.34 m/s, 264° | - | - |
* Rain latest hour (hover to see other rain measurements)
** Current wind speed in m/s (hover to see current wind gust speed)